Hlavní strana
METAR-TAF:

METAR-TAF

Letiště :

Warren Field Airport

Washington, Severní Karolína, Spojené státy americké

zeměpisná šířka: 35-34-14N, zeměpisná délka: 077-02-59W, výška: 12 m

Aktuální stav počasí

Zpráva byla vytvořena před 14 minutami, v 09:35 UTC
Bezvětří
Teplota 23°C
Vlhkost vzduchu 94%
Tlak 1018 hPa
Viditelnost: 16.1 km
Jasno

METAR: KOCW 070935Z AUTO 00000KT 10SM CLR 23/22 A3007 RMK AO2 T02340222

Čas: 05:49 (09:49 UTC)


TAF: chybějící

Stav a předpovědi počasí z více než 4 000 letišť (zprávy METAR a TAF).

Červené a žluté tečky na mapě představují dostupné meteorologické stanice.

Když kurzor umístíte na tečku, zobrazí se název stanice.

Pak kliknutím zobrazíte stav a předpověď počasí.

Chcete-li změnit mapu, kliknutím na zelené tlačítko se znaménkem +mapu přiblížíte, kliknutím na zelené tlačítko se znaménkem – mapu oddálíte a kliknutím na zelené šipky přejdete na sousední mapy.


METAR-TAF: